sat.trackr.live / text

‹ back to catalog

HOTSAT-2

NORAD 68465 · 2026-067BB

PAYLOAD ACTIVE UNKNOWN

§ Identity

Operator
Country
UK
Launch date
2026-03-30
Launch site
AFWTR
Launch vehicle
Mass (kg)
RCS (m²)

External: N2YO · Heavens-Above · Gunter

§ Orbital elements

Epoch: 2026-09-20T02:39:19.027296Z

Period
94.86 min
Inclination
97.4636°
Eccentricity
0.0005137
Mean motion
15.18014836 rev/d
Perigee alt
508.3 km
Apogee alt
515.4 km
Semi-major
6,890.0 km
B*
1.0854e-4
RAAN
220.0712°
Arg perigee
97.1284°
Mean anomaly
263.0534°
Rev number
2,633

§ Raw data

HOTSAT-21 68465U 26067BB  26263.11063689  .00002140  00000+0  10854-3 0  99902 68465  97.4636 220.0712 0005137  97.1284 263.0534 15.18014836 26331

JSON: /api/v1/satellites/68465 · /tle

For live sub-satellite position, see the globe view (requires WebGL).

§ Visibility from observer

Set your observer location to see the next 7 days of passes ≥ 10°. The values pass through the URL so the page stays shareable.

No JS? Fill the form by hand. The geolocation button needs JavaScript.